Regional Weather Roundup
Issued by NWS

Home | Current Version | Previous Version | Graphics & Text | Print | Product List | Glossary On
Versions: 1 2 3 4 5 6 7 8 9 10 11 12 13 14 15 16 17 18 19 20 21 22 23 24 25 26 27 28 29 30 31 32 33 34 35 36 37 38 39 40 41 42 43 44 45 46 47 48 49 50
000
ASUS43 KMKX 192200
RWRWI

WISCONSIN REGIONAL WEATHER ROUNDUP
NATIONAL WEATHER SERVICE MILWAUKEE/SULLIVAN WI
400 PM CST THU JAN 19 2017

NOTE: "FAIR" INDICATES FEW OR NO CLOUDS BELOW 12,000 FEET WITH NO
SIGNIFICANT WEATHER AND/OR OBSTRUCTIONS TO VISIBILITY.

WIZ001-002-006>008-014>016-023>028-192300-
NORTHWEST WISCONSIN

CITY           SKY/WX    TMP DP  RH WIND       PRES   REMARKS
SUPERIOR ARPT  CLEAR     40  33  75 E6        29.73S
ASHLAND        CLEAR     45  35  68 SW8       29.75S
HAYWARD        CLEAR     41  33  73 E3        29.75F
SIREN          CLEAR     45  34  66 S10       29.75R
CUMBERLAND     CLEAR     36  32  87 SE7       29.76R WCI  30
RICE LAKE      PTCLDY    37  33  86 SE9       29.78F WCI  30
CHETEK         NOT AVBL
LADYSMITH      CLEAR     40  33  75 SE3       29.79F
EAU CLAIRE     NOT AVBL
MENOMONIE        N/A    N/A N/A N/A MISG        N/A
NEW RICHMOND   CLOUDY    37  31  81 S5        29.77S WCI  33
OSCEOLA        CLOUDY    38  33  80 SE9       29.78F WCI  32
$$

WIZ003>005-009-010-017-018-192300-
NORTH CENTRAL WISCONSIN

CITY           SKY/WX    TMP DP  RH WIND       PRES   REMARKS
MANITOWISH WTR NOT AVBL
ARBOR VITAE    CLEAR     42  34  74 S7        29.79S
WOODRUFF       CLEAR     42  34  74 S7        29.79S
RHINELANDER    CLEAR     39  33  79 CALM      29.80F
EAGLE RIVER    CLEAR     47  33  58 SW6       29.79S
LAND O LAKES   CLEAR     49  36  60 S6        29.80R
PHILLIPS       CLEAR     42  32  69 S5        29.77S
TOMAHAWK       CLEAR     35  31  84 CALM      29.81F
MEDFORD        FOG       32  31  99 SE5       29.80S VSB 3/4 WCI  27
MERRILL        CLOUDY    34  33  97 SE5         N/A  FOG     WCI  30
$$

WIZ029-030-035-036-043>047-192300-
CENTRAL WISCONSIN

CITY           SKY/WX    TMP DP  RH WIND       PRES   REMARKS
WAUSAU         CLOUDY    36  32  85 SE8       29.82S WCI  30
MOSINEE        NOT AVBL
MARSHFIELD     CLOUDY    34  31  88 E7        29.81S FOG     WCI  28
STEVENS POINT  CLOUDY    32  32 100 CALM      29.85S FOG
WAUPACA        CLOUDY    34  32  92 CALM      29.88R FOG
WAUTOMA        CLOUDY    34  31  88 S7        29.88S WCI  28
WISC RAPIDS    CLOUDY    37  33  85 SE5       29.85R WCI  33
CAMP DOUGLAS   NOT AVBL
$$

WIZ011>013-019>022-031-037>040-048>050-192300-
NORTHEAST WISCONSIN

CITY           SKY/WX    TMP DP  RH WIND       PRES   REMARKS
ANTIGO         CLOUDY    32  32 100 SE3       29.83S FOG
SHAWANO        CLOUDY    35  32  90 CALM      29.88S FOG
OCONTO         NOT AVBL
STURGEON BAY   CLOUDY    33  32  96 S6        29.90R FOG     WCI  28
GREEN BAY      FOG       34  34 100 SW3       29.88S VSB 1
MANITOWOC      FOG       34  32  93 S6        29.90S VSB 1/2 WCI  29
APPLETON       FOG       32  32 100 SW5       29.86S VSB 3/4 WCI  27
CLINTONVILLE   FOG       32  32 100 S6        29.87S VSB 1/2 WCI  26
OSHKOSH        CLOUDY    34  32  92 S5        29.88S FOG     WCI  30
$$

WIZ032>034-041-042-053>061-192300-
SOUTHWEST WISCONSIN

CITY           SKY/WX    TMP DP  RH WIND       PRES   REMARKS
LA CROSSE      CLOUDY    39  33  79 CALM      29.81F
SPARTA         CLOUDY    38  33  83 E5        29.84F WCI  34
VIROQUA        CLOUDY    35  34  97 E7        29.80F WCI  29
BOSCOBEL       CLOUDY    39  34  82 CALM      29.83S
PRAIRIE DU CHI LGT RAIN  37  33  88 CALM      29.82F
PLATTEVILLE    CLOUDY    36  36 100 E13       29.83R WCI  28
$$

WIZ056-057-062-063-064-067-068-192300-
SOUTH CENTRAL WISCONSIN

CITY           SKY/WX    TMP DP  RH WIND       PRES   REMARKS
REEDSBURG      NOT AVBL
BARABOO/DELLS  CLOUDY    37  33  87 E6        29.84F WCI  32
LONE ROCK      NOT AVBL
MINERAL POINT  CLOUDY    36  36 100 E6        29.82S FOG     WCI  31
MADISON        CLOUDY    36  34  92 SE6       29.87S FOG     WCI  31
MIDDLETON      MOCLDY    37  37 100 SE6       29.87R WCI  32
WATERTOWN      CLOUDY    37  36  99 E3        29.86F FOG
MONROE         FOG       34  34 100 E7        29.84S VSB<1/4 WCI  28
JANESVILLE     CLOUDY    37  37 100 VRB5      29.85F FOG     WCI  34
$$

WIZ051-052-058>065-066-070>072-192300-
SOUTHEAST WISCONSIN

CITY           SKY/WX    TMP DP  RH WIND       PRES   REMARKS
MILWAUKEE      CLOUDY    37  34  89 CALM      29.89F FOG
WAUKESHA       MOCLDY    34  34 100 SE3       29.89F FOG
MILWAUKEE/TIMM PTCLDY    37  32  81 SE3       29.90R HAZE
RACINE         FOG       35  34  96 SE5       29.90F VSB<1/4 WCI  31
KENOSHA        FOG       36  34  92 SE7       29.88F VSB 3/4 WCI  30
FOND DU LAC    CLOUDY    35  32  88 S6        29.88R FOG     WCI  30
SHEBOYGAN      FOG       32  31  96 S7        29.89R VSB 1/4 WCI  26
WEST BEND      CLOUDY    34  34 100 CALM      29.89R FOG
JUNEAU         CLOUDY    34  34  99 SE6       29.89R FOG     WCI  29
$$

LSZ147-162-192300-
LAKE SUPERIOR

STATION/POSITION TIME  TEMP    WIND        PRES    WAVE
                       AIR SEA DIR/SP/G            HT/PER
                 (UTC) (F)     (DEG/KT/KT) (MB)    (FT/S)
DEVILS ISLAND    2100   36      80/  8/  8 1007.8R
PORT WING        2140   37      40/ 12/ 13 1007.1S
SAXON HARBOR     2140          200/  8/ 12 1007.1R
$$

LMZ867-665-643>646-192300-
LAKE MICHIGAN

STATION/POSITION TIME  TEMP    WIND        PRES    WAVE
                       AIR SEA DIR/SP/G            HT/PER
                 (UTC) (F)     (DEG/KT/KT) (MB)    (FT/S)
NORTHPORT PIER   2140   34     180/  2/  5 1012.5R
SISTER BAY       2120   35     180/ 10/ 11   N/A
ALGOMA LAKESHORE 2054          230/ 14/ 17   N/A
KEWAUNEE LAKESHO 2130   33     180/ 12/ 13 1012.0R
SHEBOYGAN LAKESH 2100   33     180/ 14/ 15 1012.8F
PORT WASHINGTON  2130   33     170/  7/  8 1013.9R
MILWAUKEE LAKESH 2130   34     160/  7/  8   N/A
KENOSHA   LAKESH 2100   33     160/  6/  9 1012.9
$$

TC  - TEMPERATURE IN CELSIUS
VSB - VISIBILITY IN STATUTE MILES
WCI - WIND CHILL INDEX
HX  - HEAT INDEX





USA.gov is the U.S. government's official web portal to all federal, state and local government web resources and services.